Weather History for Reidsville, NC

Change the Weather History Date:

Tuesday, May 27, 2014

  Actual Average (KGSO) Record (KGSO)
Temperature  
Mean Temperature 74 °F 70 °F  
Max Temperature 85 °F 80 °F 100 °F (1911)
Min Temperature 64 °F 60 °F 40 °F (1961)
Degree Days  
Heating Degree Days 0 1  
Month to date heating degree days 63  
Since 1 July heating degree days 3609  
Cooling Degree Days 10 6  
Month to date cooling degree days 96  
Year to date cooling degree days 134  
Growing Degree Days 24 (Base 50)    
Moisture  
Dew Point 66 °F    
Average Humidity 81    
Maximum Humidity 98    
Minimum Humidity 50    
Precipitation  
Precipitation 0.49 in 0.12 in 2.55 in (1905)
Month to date precipitation 2.89  
Year to date precipitation 16.21  
Sea Level Pressure  
Sea Level Pressure 30.05 in    
Wind  
Wind Speed 3 mph (SW)    
Max Wind Speed 8 mph    
Max Gust Speed -    
Visibility 9 miles    
Events Rain    
T = Trace of Precipitation, MM = Missing Value Source: NWS Daily Summary

Daily Weather History Graph

Daily Weather History Graph

Search for Another Location

Airport:

Trip Planner

Search our weather history database for the weather conditions in past years. The results will help you decide how hot, cold, wet, or windy it might be!

Date:

Astronomy

May. 27, 2014 Rise Set
Actual Time 6:04 AM EDT 8:28 PM EDT
Civil Twilight 5:35 AM EDT 8:58 PM EDT
Nautical Twilight 4:58 AM EDT 9:34 PM EDT
Astronomical Twilight 4:18 AM EDT 10:15 PM EDT
Moon 5:23 AM EDT (5/27) 7:31 PM EDT (5/27)
Length of Visible Light 15h 22m
Length of Day
14h 23m
Waning Crescent, 1% of the Moon is Illuminated
May 27
Waning Crescent
May 28
New
Jun 5
First Quarter
Jun 13
Full
Jun 19
Last Quarter

Hourly Weather History & Observations

Time (EDT) Temp. Heat Index Dew Point Humidity Pressure Visibility Wind Dir Wind Speed Gust Speed Precip Events Conditions
12:15 AM 69.1 °F - 64.9 °F 87% 30.10 in 10.0 mi SW 3.5 mph - N/A   Clear
12:35 AM 68.9 °F - 64.8 °F 87% 30.10 in 10.0 mi SW 3.5 mph - N/A   Clear
12:55 AM 68.4 °F - 64.4 °F 87% 30.11 in 10.0 mi Calm Calm - N/A   Clear
1:15 AM 68.0 °F - 64.0 °F 87% 30.11 in 10.0 mi Calm Calm - N/A   Clear
1:35 AM 68.4 °F - 64.2 °F 87% 30.10 in 10.0 mi SW 3.5 mph - N/A   Clear
2:15 AM 66.6 °F - 63.7 °F 90% 30.09 in 10.0 mi Calm Calm - N/A   Clear
2:35 AM 66.9 °F - 63.9 °F 90% 30.09 in 10.0 mi SW 3.5 mph - N/A   Clear
2:55 AM 66.6 °F - 63.9 °F 91% 30.09 in 10.0 mi SSW 3.5 mph - N/A   Clear
3:15 AM 65.8 °F - 63.0 °F 90% 30.09 in 10.0 mi Calm Calm - N/A   Clear
3:35 AM 66.2 °F - 63.5 °F 91% 30.08 in 10.0 mi SSW 4.6 mph - N/A   Clear
3:55 AM 65.7 °F - 63.1 °F 92% 30.08 in 10.0 mi SSW 3.5 mph - N/A   Clear
4:15 AM 65.5 °F - 63.0 °F 92% 30.08 in 10.0 mi Calm Calm - N/A   Clear
4:35 AM 65.3 °F - 62.8 °F 92% 30.09 in 10.0 mi SW 3.5 mph - N/A   Clear
4:55 AM 64.9 °F - 62.6 °F 92% 30.08 in 10.0 mi Calm Calm - N/A   Clear
5:15 AM 64.6 °F - 62.6 °F 93% 30.08 in 10.0 mi South 3.5 mph - N/A   Clear
5:35 AM 64.4 °F - 62.6 °F 94% 30.08 in 10.0 mi Calm Calm - N/A   Clear
5:55 AM 64.4 °F - 62.6 °F 94% 30.08 in 10.0 mi SW 3.5 mph - N/A   Clear
6:15 AM 64.0 °F - 62.6 °F 95% 30.08 in 10.0 mi SW 3.5 mph - N/A   Clear
6:35 AM 64.2 °F - 62.8 °F 95% 30.09 in 7.0 mi SW 4.6 mph - N/A   Clear
6:55 AM 65.1 °F - 63.5 °F 94% 30.09 in 7.0 mi SW 4.6 mph - N/A   Clear
7:15 AM 65.7 °F - 63.7 °F 93% 30.09 in 10.0 mi SW 4.6 mph - N/A   Clear
7:35 AM 66.6 °F - 64.2 °F 92% 30.09 in 10.0 mi SW 5.8 mph - N/A   Clear
7:55 AM 67.5 °F - 64.8 °F 91% 30.09 in 10.0 mi SW 5.8 mph - N/A   Clear
8:15 AM 68.2 °F - 65.1 °F 90% 30.09 in 10.0 mi SW 4.6 mph - N/A   Clear
8:35 AM 70.0 °F - 65.5 °F 86% 30.09 in 10.0 mi SW 5.8 mph - N/A   Clear
8:55 AM 72.0 °F - 65.7 °F 80% 30.09 in 10.0 mi WSW 3.5 mph - N/A   Clear
9:15 AM 73.8 °F - 65.7 °F 76% 30.09 in 10.0 mi SSW 4.6 mph - N/A   Clear
9:35 AM 76.1 °F - 66.9 °F 73% 30.10 in 10.0 mi WSW 5.8 mph - N/A   Clear
9:55 AM 77.0 °F - 66.4 °F 70% 30.10 in 10.0 mi SW 5.8 mph - N/A   Clear
10:15 AM 78.1 °F - 66.6 °F 68% 30.09 in 10.0 mi SW 6.9 mph - N/A   Clear
10:35 AM 79.7 °F - 66.7 °F 64% 30.09 in 10.0 mi SW 3.5 mph - N/A   Clear
10:55 AM 81.1 °F 83.7 °F 67.3 °F 63% 30.08 in 10.0 mi West 3.5 mph - N/A   Clear
11:15 AM 81.7 °F 84.0 °F 66.4 °F 60% 30.08 in 10.0 mi SSW 4.6 mph - N/A   Clear
11:35 AM 82.2 °F 84.2 °F 65.7 °F 57% 30.08 in 10.0 mi SW 3.5 mph - N/A   Clear
11:55 AM 83.5 °F 86.0 °F 66.9 °F 57% 30.08 in 10.0 mi SSW 8.1 mph - N/A   Scattered Clouds
12:15 PM 84.0 °F 86.5 °F 66.6 °F 56% 30.07 in 10.0 mi SW 5.8 mph - N/A   Clear
12:35 PM 84.7 °F 87.1 °F 66.4 °F 54% 30.06 in 10.0 mi SSW 5.8 mph - N/A   Scattered Clouds
12:55 PM 85.1 °F 87.4 °F 66.2 °F 53% 30.06 in 10.0 mi SSW 4.6 mph - N/A   Scattered Clouds
1:15 PM 85.8 °F 87.6 °F 65.3 °F 50% 30.05 in 10.0 mi Calm Calm - N/A   Scattered Clouds
1:35 PM 84.6 °F 86.6 °F 65.8 °F 53% 30.03 in 10.0 mi WSW 3.5 mph - N/A   Mostly Cloudy
1:55 PM 83.7 °F 86.0 °F 66.2 °F 56% 30.03 in 10.0 mi WNW 8.1 mph - N/A Rain Light Rain
2:15 PM 70.5 °F - 63.9 °F 79% 30.06 in 1.2 mi Calm Calm - 0.47 in Rain Heavy Rain
2:35 PM 68.0 °F - 66.2 °F 94% 30.04 in 5.0 mi Calm Calm - 0.49 in Rain Light Rain
2:55 PM 69.3 °F - 66.6 °F 91% 30.04 in 10.0 mi WSW 4.6 mph - 0.49 in   Light Drizzle
3:15 PM 70.7 °F - 67.1 °F 88% 30.03 in 10.0 mi SSE 3.5 mph - N/A   Clear
3:55 PM 75.2 °F - 69.4 °F 82% 30.02 in 10.0 mi South 5.8 mph - N/A   Clear
4:15 PM 76.5 °F - 68.7 °F 77% 30.01 in 10.0 mi South 3.5 mph - N/A   Clear
4:35 PM 77.0 °F - 69.8 °F 78% 29.99 in 10.0 mi SW 4.6 mph - N/A   Clear
4:55 PM 77.0 °F - 69.8 °F 78% 29.98 in 10.0 mi SW 4.6 mph - N/A   Clear
5:15 PM 79.3 °F - 70.3 °F 74% 29.98 in 10.0 mi SW 6.9 mph - N/A   Clear
5:35 PM 80.2 °F 83.3 °F 69.8 °F 70% 29.99 in 10.0 mi SW 6.9 mph - N/A   Clear
5:55 PM 79.9 °F - 67.1 °F 65% 29.99 in 10.0 mi SW 8.1 mph - N/A   Clear
6:15 PM 79.5 °F - 67.5 °F 66% 29.99 in 10.0 mi SW 4.6 mph - N/A   Clear
6:35 PM 79.3 °F - 68.9 °F 70% 29.98 in 10.0 mi WSW 4.6 mph - N/A   Clear
6:55 PM 79.7 °F - 68.9 °F 69% 29.98 in 10.0 mi SW 5.8 mph - N/A   Clear
7:15 PM 78.3 °F - 68.9 °F 73% 29.98 in 10.0 mi SW 5.8 mph - N/A   Clear
7:35 PM 77.2 °F - 69.1 °F 76% 29.99 in 10.0 mi SW 4.6 mph - N/A   Clear
7:55 PM 76.5 °F - 69.1 °F 78% 29.98 in 10.0 mi SW 3.5 mph - N/A   Clear
8:15 PM 75.4 °F - 69.3 °F 81% 29.99 in 10.0 mi Calm Calm - N/A   Clear
8:35 PM 74.3 °F - 68.9 °F 83% 29.98 in 10.0 mi Calm Calm - N/A   Clear
8:55 PM 72.3 °F - 68.5 °F 88% 29.98 in 10.0 mi Calm Calm - N/A   Clear
9:15 PM 72.1 °F - 68.9 °F 89% 29.98 in 10.0 mi WSW 3.5 mph - N/A   Clear
9:35 PM 71.8 °F - 68.9 °F 91% 29.99 in 10.0 mi SW 3.5 mph - N/A   Clear
9:55 PM 70.7 °F - 68.2 °F 92% 30.00 in 10.0 mi Calm Calm - N/A   Clear
10:15 PM 72.0 °F - 67.6 °F 86% 30.01 in 10.0 mi Calm Calm - N/A   Clear
10:35 PM 68.9 °F - 66.6 °F 92% 30.02 in 7.0 mi Calm Calm - N/A   Clear
10:55 PM 67.5 °F - 66.0 °F 95% 30.02 in 5.0 mi Calm Calm - N/A   Clear
11:15 PM 66.4 °F - 65.3 °F 96% 30.02 in 4.0 mi Calm Calm - N/A   Clear
11:35 PM 66.0 °F - 65.3 °F 98% 30.02 in 3.0 mi Calm Calm - N/A   Clear
11:55 PM 65.7 °F - 65.1 °F 98% 30.02 in 4.0 mi Calm Calm - N/A   Scattered Clouds